map of TMJ home
TMJ - Airport
Location
City:  Termez, Surxondaryo, Uzbekistan
Name:Termez Airport
ICAO:UTST
IATA:TMJ

Details
Type:Airport (Aerodrome, Airfield)
Use:Public/Civil
Latitude:3717'12"N (37.286667)
Longitude:6718'36"E (67.310000)
Elevation:1027 ft (313 m)
Variation:4.20E (WMM2015 magnetic declination)
0.06 annual change
Runways:1
Longest:9843 × 138 ft (3000 × 42 m), paved

Time
Time Zone:UTC+5
Local Time:

Weather
METAR:UTST 150230Z 05004KT CAVOK 02/M02 Q1025 R88/CLRD70 NOSIG
TAF:UTST 141700Z 1418/1518 09006G16KT 6000 SCT030 SCT100
TEMPO 1418/1423 1500 BR FU
TEMPO 1423/1505 0300 FG VV001
TEMPO 1505/1512 26010G20KT BKN020

Related Locations
Nearby:
Farthest:IPC: 11708 mi / 18842 km
Easter Island (Isla de Pascua, Rapa Nui) [Mataveri Intl], VS, CL

Find:

   beyond  
but within

Other Information
Maps:
NOTAMs:
Links:
Sources:

  
  • flag of Uzbekistan
  

Sectional Chart

Flight Planning
at skyvector.com

Satellite Image

Google Maps Satellite view

 

Copyright © 2004-2018 Karl L. Swartz. All rights reserved.
The Great Circle Mapper name and logo are trademarks of the Great Circle Mapper.
All other trademarks mentioned herein belong to their respective owners.
Please see credits for attibutions and further copyright information.

  Follow gcmap on Facebook Follow gcmap on Twitter Follow gcmap on Google+ GCmap on LinkedIn

hCard Microformat

Geo Microformat